星链-11310 (STARLINK-11310)

导读

STARLINK-11310是美国太空探索技术公司(SpaceX)于2024年9月20日发射的星链系列卫星,归属星链星座组网计划,主要为全球范围内用户提供低延迟、高速率的宽带互联网服务。作为Starlink项目的组网卫星之一,它进一步扩充了星链低轨卫星星座的规模,助力全球网络覆盖能力提升。

基本信息
目录编号:
61212
目录名称:
STARLINK-11310
国际标识:
2024-171N
轨道中心:
EARTH
卫星名称:
星链-11310
卫星全名:
星链-11310 (STARLINK-11310)
卫星状态:
在轨 (已飞行715 天)
发射日期:
2024-09-20 UTC
国别 :
美国 (US)
星等 :
--
轨道信息
数据来源 国际轨道数据
星历时间: 2026-09-04T16:02:06+0800
1天前
查看轨道信息
半长轴: 6737.873km
偏心率: 0.0000729
轨道倾角: 53.159°
近地点辐角 100.799°
升交点赤经 15.844°
平近点角 259.311°
近地点: 359.244km
远地点: 360.228km
周期: 91.737分钟
每日圈数: 15.697071
详细信息
固有亮度:
5
最大亮度:
2.5
卫星平台:
Starlink V1.0
覆盖范围:
全球
运营商:
太空探索技术公司
运营商所在国:
美国
制造商(研发单位):
太空探索技术公司
制造商所在国:
美国
使用方式:
暂无
卫星简介
Starlink 计划是 SpaceX 推出的全球卫星互联网项目,通过发射低轨道卫星,为全球尤其是偏远地区提供高速、低延迟的互联网服务。自 2019 年起,Starlink 已部署数千颗卫星,旨在缩小全球数字鸿沟,推动互联网普及。该项目还为军事、航空等行业提供通信支持,带来广泛经济效益。
2D轨道图
3D轨道图
轨道高度分析图
轨道倾角分析图
轨道综合分析图
查看轨道综合分析图
交会数据列表
事件ID 空间交会对象 最接近时刻(TCA) 交会距离 交会风险概率(CRP) 交会风险指数(CRI) 操作
CDM_260903-040606-121206-837322
2026-09-03T
04:06:25+0000
2.686 km
极远距离
1.299524E-6 低风险 0.37
CDM_260903-053806-121206-837322
2026-09-03T
05:38:08+0000
2.785 km
极远距离
1.231993E-6 低风险 0.37
CDM_260903-153006-121206-223022
2026-09-03T
15:30:12+0000
2.669 km
极远距离
1.061214E-6 低风险 0.36